| time (UTC) | temp C | wind direction | speed KPH | gust KPH | rain 1hr cm | rain 24hr cm | rain mn cm | humidity % | barometer mb |
| 20260506013806 | 18 | 39 | 1.6 | 3.2 | 0.00 | 0.00 | 0.00 | 63 | 1013.9 |
| 20260506013303 | 18 | 34 | 3.2 | 3.2 | 0.00 | 0.00 | 0.00 | 65 | 1013.8 |
| 20260506012800 | 18 | 25 | 1.6 | 3.2 | 0.00 | 0.00 | 0.00 | 66 | 1013.8 |
| 20260506012257 | 18 | 54 | 0.0 | 3.2 | 0.00 | 0.00 | 0.00 | 63 | 1013.7 |
| 20260506011754 | 18 | 40 | 1.6 | 3.2 | 0.00 | 0.00 | 0.00 | 62 | 1013.6 |
| 20260506011250 | 19 | 42 | 1.6 | 1.6 | 0.00 | 0.00 | 0.00 | 62 | 1013.7 |
| 20260506010748 | 19 | 38 | 0.0 | 3.2 | 0.00 | 0.00 | 0.00 | 61 | 1013.7 |
| 20260506010246 | 19 | 27 | 3.2 | 3.2 | 0.00 | 0.00 | 0.00 | 61 | 1013.8 |
| 20260506005743 | 20 | 55 | 0.0 | 0.0 | 0.00 | 0.00 | 0.00 | 59 | 1013.4 |
| 20260506005239 | 20 | 89 | 0.0 | 1.6 | 0.00 | 0.00 | 0.00 | 61 | 1013.6 |
| 20260506004735 | 20 | 38 | 0.0 | 1.6 | 0.00 | 0.00 | 0.00 | 60 | 1013.7 |
| 20260506004233 | 20 | 45 | 0.0 | 1.6 | 0.00 | 0.00 | 0.00 | 59 | 1013.6 |
| 20260506003729 | 20 | 33 | 1.6 | 1.6 | 0.00 | 0.00 | 0.00 | 59 | 1013.3 |
| 20260506003226 | 20 | 63 | 0.0 | 1.6 | 0.00 | 0.00 | 0.00 | 57 | 1013.6 |
| 20260506002721 | 20 | 42 | 0.0 | 1.6 | 0.00 | 0.00 | 0.00 | 60 | 1013.6 |
| 20260506002218 | 20 | 18 | 1.6 | 3.2 | 0.00 | 0.00 | 0.00 | 57 | 1013.4 |
| 20260506001714 | 21 | 16 | 1.6 | 3.2 | 0.00 | 0.00 | 0.00 | 56 | 1013.6 |
| 20260506001212 | 21 | 354 | 0.0 | 3.2 | 0.00 | 0.00 | 0.00 | 55 | 1013.3 |
| 20260506000708 | 22 | 16 | 1.6 | 3.2 | 0.00 | 0.00 | 0.00 | 56 | 1013.4 |
| 20260506000206 | 22 | 31 | 0.0 | 1.6 | 0.00 | 0.00 | 0.00 | 53 | 1013.6 |
| 20260505235703 | 22 | 157 | 0.0 | 3.2 | 0.00 | 0.00 | 0.00 | 53 | 1013.3 |
| 20260505235201 | 22 | 60 | 0.0 | 1.6 | 0.00 | 0.00 | 0.00 | 53 | 1013.6 |
| 20260505234657 | 22 | 16 | 0.0 | 1.6 | 0.00 | 0.00 | 0.00 | 53 | 1013.4 |
| 20260505234154 | 22 | 68 | 1.6 | 3.2 | 0.00 | 0.00 | 0.00 | 51 | 1013.4 |
| 20260505233651 | 23 | 50 | 0.0 | 1.6 | 0.00 | 0.00 | 0.00 | 48 | 1013.6 |
| 20260505233148 | 22 | 206 | 3.2 | 3.2 | 0.00 | 0.00 | 0.00 | 47 | 1013.3 |
| 20260505232646 | 23 | 97 | 1.6 | 3.2 | 0.00 | 0.00 | 0.00 | 48 | 1013.4 |
| 20260505232144 | 23 | 16 | 3.2 | 3.2 | 0.00 | 0.00 | 0.00 | 47 | 1013.6 |
| 20260505231640 | 23 | 10 | 1.6 | 3.2 | 0.00 | 0.00 | 0.00 | 50 | 1013.4 |
| 20260505231139 | 23 | 62 | 0.0 | 1.6 | 0.00 | 0.00 | 0.00 | 44 | 1013.8 |
| 20260505230637 | 23 | 101 | 0.0 | 3.2 | 0.00 | 0.00 | 0.00 | 42 | 1013.7 |
| 20260505230133 | 23 | 51 | 3.2 | 6.4 | 0.00 | 0.00 | 0.00 | 42 | 1013.8 |
| 20260505225629 | 23 | 127 | 0.0 | 6.4 | 0.00 | 0.00 | 0.00 | 43 | 1013.8 |
| 20260505225126 | 23 | 99 | 0.0 | 4.8 | 0.00 | 0.00 | 0.00 | 44 | 1013.7 |
| 20260505224622 | 24 | 89 | 1.6 | 3.2 | 0.00 | 0.00 | 0.00 | 42 | 1013.7 |
| 20260505224120 | 24 | 68 | 3.2 | 6.4 | 0.00 | 0.00 | 0.00 | 39 | 1013.8 |
| 20260505223617 | 25 | 252 | 4.8 | 6.4 | 0.00 | 0.00 | 0.00 | 39 | 1013.7 |
| 20260505223113 | 25 | 81 | 3.2 | 3.2 | 0.00 | 0.00 | 0.00 | 39 | 1013.7 |
| 20260505222609 | 25 | 235 | 0.0 | 6.4 | 0.00 | 0.00 | 0.00 | 41 | 1013.4 |
| 20260505222106 | 25 | 143 | 3.2 | 3.2 | 0.00 | 0.00 | 0.00 | 39 | 1013.4 |
| 20260505221603 | 25 | 278 | 3.2 | 9.7 | 0.00 | 0.00 | 0.00 | 38 | 1013.1 |
| 20260505221059 | 25 | 250 | 1.6 | 12.9 | 0.00 | 0.00 | 0.00 | 39 | 1013.4 |
| 20260505220557 | 25 | 94 | 1.6 | 3.2 | 0.00 | 0.00 | 0.00 | 40 | 1013.4 |
| 20260505220054 | 26 | 180 | 0.0 | 1.6 | 0.00 | 0.00 | 0.00 | 38 | 1013.6 |
| 20260505215552 | 26 | 118 | 3.2 | 4.8 | 0.00 | 0.00 | 0.00 | 37 | 1013.7 |
| 20260505215049 | 27 | 350 | 1.6 | 6.4 | 0.00 | 0.00 | 0.00 | 35 | 1013.7 |
| 20260505214547 | 26 | 42 | 0.0 | 6.4 | 0.00 | 0.00 | 0.00 | 35 | 1013.7 |
| 20260505214044 | 27 | 1 | 6.4 | 9.7 | 0.00 | 0.00 | 0.00 | 35 | 1013.7 |
| 20260505213542 | 26 | 297 | 0.0 | 8.0 | 0.00 | 0.00 | 0.00 | 37 | 1013.6 |
| 20260505213037 | 26 | 246 | 1.6 | 3.2 | 0.00 | 0.00 | 0.00 | 38 | 1013.7 |
| 20260505212534 | 26 | 103 | 3.2 | 6.4 | 0.00 | 0.00 | 0.00 | 39 | 1013.8 |
| 20260505212032 | 27 | 281 | 1.6 | 8.0 | 0.00 | 0.00 | 0.00 | 35 | 1013.8 |
| 20260505211529 | 26 | 274 | 4.8 | 6.4 | 0.00 | 0.00 | 0.00 | 35 | 1013.8 |
| 20260505211025 | 26 | 101 | 3.2 | 6.4 | 0.00 | 0.00 | 0.00 | 36 | 1013.9 |
| 20260505210522 | 27 | 52 | 0.0 | 3.2 | 0.00 | 0.00 | 0.00 | 36 | 1013.8 |
| 20260505210019 | 26 | 67 | 0.0 | 4.8 | 0.00 | 0.00 | 0.00 | 37 | 1014.0 |
| 20260505205517 | 27 | 348 | 1.6 | 9.7 | 0.00 | 0.00 | 0.00 | 38 | 1013.8 |
| 20260505205014 | 26 | 104 | 3.2 | 6.4 | 0.00 | 0.00 | 0.00 | 36 | 1013.8 |
| 20260505204512 | 26 | 71 | 9.7 | 11.3 | 0.00 | 0.00 | 0.00 | 35 | 1014.0 |
| 20260505204008 | 26 | 119 | 0.0 | 8.0 | 0.00 | 0.00 | 0.00 | 36 | 1013.9 |
| 20260505203505 | 26 | 111 | 3.2 | 9.7 | 0.00 | 0.00 | 0.00 | 35 | 1014.1 |
| 20260505203001 | 26 | 297 | 3.2 | 9.7 | 0.00 | 0.00 | 0.00 | 35 | 1014.1 |
| 20260505202458 | 26 | 71 | 4.8 | 8.0 | 0.00 | 0.00 | 0.00 | 36 | 1014.2 |
| 20260505201954 | 26 | 94 | 4.8 | 6.4 | 0.00 | 0.00 | 0.00 | 37 | 1014.3 |
| 20260505201451 | 26 | 262 | 8.0 | 8.0 | 0.00 | 0.00 | 0.00 | 36 | 1014.2 |
| 20260505200949 | 26 | 108 | 3.2 | 4.8 | 0.00 | 0.00 | 0.00 | 40 | 1014.2 |
| 20260505200447 | 26 | 253 | 1.6 | 6.4 | 0.00 | 0.00 | 0.00 | 40 | 1014.4 |
| 20260505195942 | 26 | 105 | 3.2 | 6.4 | 0.00 | 0.00 | 0.00 | 42 | 1014.6 |
| 20260505195439 | 25 | 262 | 4.8 | 9.7 | 0.00 | 0.00 | 0.00 | 41 | 1014.7 |
| 20260505194937 | 25 | 255 | 8.0 | 9.7 | 0.00 | 0.00 | 0.00 | 39 | 1014.8 |
| 20260505194434 | 25 | 41 | 1.6 | 14.5 | 0.00 | 0.00 | 0.00 | 41 | 1014.7 |
| 20260505193934 | 25 | 99 | 1.6 | 4.8 | 0.00 | 0.00 | 0.00 | 41 | 1014.8 |
| 20260505193432 | 25 | 109 | 6.4 | 6.4 | 0.00 | 0.00 | 0.00 | 41 | 1014.8 |
| 20260505192929 | 25 | 122 | 3.2 | 6.4 | 0.00 | 0.00 | 0.00 | 41 | 1014.8 |
| 20260505192427 | 25 | 205 | 0.0 | 3.2 | 0.00 | 0.00 | 0.00 | 42 | 1014.9 |
| 20260505191925 | 26 | 224 | 3.2 | 8.0 | 0.00 | 0.00 | 0.00 | 39 | 1014.6 |
| 20260505191424 | 26 | 126 | 3.2 | 6.4 | 0.00 | 0.00 | 0.00 | 40 | 1014.9 |
| 20260505190920 | 26 | 102 | 4.8 | 6.4 | 0.00 | 0.00 | 0.00 | 39 | 1015.0 |
| 20260505190415 | 26 | 119 | 0.0 | 4.8 | 0.00 | 0.00 | 0.00 | 38 | 1014.8 |
| 20260505185910 | 26 | 106 | 4.8 | 6.4 | 0.00 | 0.00 | 0.00 | 38 | 1014.9 |
| 20260505185408 | 26 | 287 | 3.2 | 4.8 | 0.00 | 0.00 | 0.00 | 42 | 1014.9 |
| 20260505184904 | 26 | 86 | 4.8 | 6.4 | 0.00 | 0.00 | 0.00 | 40 | 1015.1 |
| 20260505184401 | 25 | 35 | 0.0 | 6.4 | 0.00 | 0.00 | 0.00 | 43 | 1015.1 |
| 20260505183858 | 25 | 86 | 3.2 | 6.4 | 0.00 | 0.00 | 0.00 | 41 | 1015.1 |
| 20260505183355 | 26 | 77 | 4.8 | 9.7 | 0.00 | 0.00 | 0.00 | 40 | 1015.3 |
| 20260505182851 | 26 | 62 | 1.6 | 4.8 | 0.00 | 0.00 | 0.00 | 43 | 1015.2 |
| 20260505182348 | 26 | 94 | 6.4 | 9.7 | 0.00 | 0.00 | 0.00 | 41 | 1015.5 |
| 20260505181845 | 25 | 18 | 4.8 | 12.9 | 0.00 | 0.00 | 0.00 | 41 | 1015.5 |
| 20260505181342 | 25 | 61 | 3.2 | 9.7 | 0.00 | 0.00 | 0.00 | 41 | 1015.8 |
| 20260505180839 | 25 | 91 | 3.2 | 8.0 | 0.00 | 0.00 | 0.00 | 40 | 1015.5 |
| 20260505180335 | 26 | 81 | 6.4 | 8.0 | 0.00 | 0.00 | 0.00 | 41 | 1015.9 |
| 20260505175832 | 25 | 307 | 4.8 | 12.9 | 0.00 | 0.00 | 0.00 | 43 | 1015.8 |
| 20260505175328 | 25 | 297 | 1.6 | 6.4 | 0.00 | 0.00 | 0.00 | 41 | 1015.9 |
| 20260505174825 | 25 | 89 | 3.2 | 19.3 | 0.00 | 0.00 | 0.00 | 40 | 1015.9 |
| 20260505174322 | 25 | 74 | 3.2 | 9.7 | 0.00 | 0.00 | 0.00 | 40 | 1016.0 |
| 20260505173818 | 25 | 97 | 3.2 | 6.4 | 0.00 | 0.00 | 0.00 | 40 | 1016.1 |
| 20260505173314 | 25 | 212 | 1.6 | 4.8 | 0.00 | 0.00 | 0.00 | 40 | 1015.9 |
| 20260505172812 | 25 | 152 | 6.4 | 14.5 | 0.00 | 0.00 | 0.00 | 40 | 1016.1 |
| 20260505172310 | 25 | 118 | 3.2 | 4.8 | 0.00 | 0.00 | 0.00 | 45 | 1015.8 |
| 20260505171804 | 25 | 53 | 3.2 | 4.8 | 0.00 | 0.00 | 0.00 | 42 | 1016.2 |
| 20260505171301 | 25 | 65 | 3.2 | 6.4 | 0.00 | 0.00 | 0.00 | 43 | 1016.3 |
| 20260505170757 | 25 | 76 | 3.2 | 8.0 | 0.00 | 0.00 | 0.00 | 41 | 1016.1 |
| 20260505170255 | 25 | 66 | 3.2 | 8.0 | 0.00 | 0.00 | 0.00 | 39 | 1016.1 |
| 20260505165750 | 25 | 235 | 3.2 | 6.4 | 0.00 | 0.00 | 0.00 | 40 | 1015.9 |
| 20260505165246 | 25 | 111 | 0.0 | 6.4 | 0.00 | 0.00 | 0.00 | 43 | 1016.0 |
| 20260505164742 | 25 | 265 | 3.2 | 9.7 | 0.00 | 0.00 | 0.00 | 43 | 1016.1 |
| 20260505164239 | 24 | 35 | 0.0 | 8.0 | 0.00 | 0.00 | 0.00 | 42 | 1016.2 |
| 20260505163737 | 24 | 89 | 4.8 | 12.9 | 0.00 | 0.00 | 0.00 | 43 | 1016.2 |
| 20260505163236 | 24 | 79 | 3.2 | 8.0 | 0.00 | 0.00 | 0.00 | 41 | 1016.2 |
| 20260505162732 | 25 | 75 | 6.4 | 8.0 | 0.00 | 0.00 | 0.00 | 38 | 1016.2 |
| 20260505162229 | 24 | 48 | 1.6 | 9.7 | 0.00 | 0.00 | 0.00 | 42 | 1016.2 |
| 20260505161726 | 25 | 97 | 4.8 | 8.0 | 0.00 | 0.00 | 0.00 | 40 | 1016.3 |
| 20260505161224 | 25 | 230 | 3.2 | 6.4 | 0.00 | 0.00 | 0.00 | 40 | 1016.3 |
| 20260505160721 | 24 | 82 | 3.2 | 8.0 | 0.00 | 0.00 | 0.00 | 41 | 1016.4 |
| 20260505160219 | 23 | 78 | 3.2 | 8.0 | 0.00 | 0.00 | 0.00 | 44 | 1016.5 |
| 20260505153158 | 23 | 341 | 0.0 | 8.0 | 0.00 | 0.00 | 0.00 | 43 | 1016.4 |
| 20260505152655 | 24 | 95 | 4.8 | 4.8 | 0.00 | 0.00 | 0.00 | 45 | 1016.4 |
| 20260505152150 | 24 | 253 | 6.4 | 6.4 | 0.00 | 0.00 | 0.00 | 41 | 1016.5 |
| 20260505151646 | 23 | 56 | 3.2 | 3.2 | 0.00 | 0.00 | 0.00 | 46 | 1016.6 |
| 20260505151144 | 23 | 109 | 0.0 | 3.2 | 0.00 | 0.00 | 0.00 | 46 | 1016.9 |
| 20260505150639 | 23 | 227 | 1.6 | 3.2 | 0.00 | 0.00 | 0.00 | 45 | 1016.7 |
| 20260505150137 | 23 | 102 | 1.6 | 4.8 | 0.00 | 0.00 | 0.00 | 51 | 1016.6 |
| 20260505140605 | 16 | 120 | 0.0 | 4.8 | 0.00 | 0.00 | 0.00 | 70 | 1016.9 |
| 20260505125019 | 12 | 100 | 1.6 | 3.2 | 0.00 | 0.00 | 0.00 | 87 | 1016.3 |
| 20260505124515 | 12 | 112 | 3.2 | 3.2 | 0.00 | 0.00 | 0.00 | 87 | 1016.0 |
| 20260505124012 | 11 | 92 | 1.6 | 1.6 | 0.00 | 0.00 | 0.00 | 88 | 1016.1 |
| 20260505123508 | 11 | 105 | 3.2 | 3.2 | 0.00 | 0.00 | 0.00 | 88 | 1015.9 |
| 20260505123004 | 11 | 118 | 3.2 | 3.2 | 0.00 | 0.00 | 0.00 | 88 | 1016.1 |
| 20260505122502 | 11 | 100 | 1.6 | 1.6 | 0.00 | 0.00 | 0.00 | 90 | 1016.1 |
| 20260505121958 | 10 | 109 | 1.6 | 1.6 | 0.00 | 0.00 | 0.00 | 90 | 1016.1 |
| 20260505121455 | 10 | 92 | 1.6 | 3.2 | 0.00 | 0.00 | 0.00 | 91 | 1016.1 |
| 20260505120951 | 10 | 84 | 1.6 | 3.2 | 0.00 | 0.00 | 0.00 | 91 | 1016.1 |
| 20260505120448 | 10 | 106 | 1.6 | 3.2 | 0.00 | 0.00 | 0.00 | 91 | 1016.0 |
| 20260505115947 | 10 | 97 | 3.2 | 4.8 | 0.00 | 0.00 | 0.00 | 92 | 1016.0 |
| 20260505115443 | 9 | 109 | 1.6 | 4.8 | 0.00 | 0.00 | 0.00 | 92 | 1015.8 |
| 20260505114941 | 9 | 107 | 1.6 | 3.2 | 0.00 | 0.00 | 0.00 | 92 | 1015.8 |
| 20260505114437 | 9 | 102 | 3.2 | 3.2 | 0.00 | 0.00 | 0.00 | 92 | 1015.9 |
| 20260505113934 | 9 | 77 | 1.6 | 3.2 | 0.00 | 0.00 | 0.00 | 93 | 1015.6 |
| 20260505113430 | 8 | 133 | 1.6 | 4.8 | 0.00 | 0.00 | 0.00 | 93 | 1015.5 |
| 20260505112926 | 8 | 93 | 3.2 | 4.8 | 0.00 | 0.00 | 0.00 | 93 | 1015.5 |
| 20260505112424 | 8 | 95 | 3.2 | 3.2 | 0.00 | 0.00 | 0.00 | 93 | 1015.4 |
| 20260505111920 | 8 | 93 | 1.6 | 3.2 | 0.00 | 0.00 | 0.00 | 93 | 1015.2 |
| 20260505111415 | 8 | 103 | 3.2 | 3.2 | 0.00 | 0.00 | 0.00 | 93 | 1015.4 |
| 20260505110911 | 8 | 79 | 3.2 | 4.8 | 0.00 | 0.00 | 0.00 | 93 | 1015.6 |
| 20260505110409 | 8 | 89 | 0.0 | 3.2 | 0.00 | 0.00 | 0.00 | 93 | 1015.2 |
| 20260505101839 | 8 | 68 | 3.2 | 3.2 | 0.00 | 0.00 | 0.00 | 93 | 1015.1 |
| 20260505101334 | 8 | 50 | 3.2 | 3.2 | 0.00 | 0.00 | 0.00 | 93 | 1015.3 |
| 20260505100830 | 8 | 129 | 3.2 | 4.8 | 0.00 | 0.00 | 0.00 | 93 | 1015.4 |
| 20260505100327 | 8 | 97 | 3.2 | 4.8 | 0.00 | 0.00 | 0.00 | 93 | 1015.3 |
| 20260505095822 | 8 | 113 | 1.6 | 3.2 | 0.00 | 0.00 | 0.00 | 93 | 1015.1 |
| 20260505095320 | 8 | 106 | 0.0 | 3.2 | 0.00 | 0.00 | 0.00 | 93 | 1015.3 |
| 20260505094816 | 8 | 92 | 1.6 | 3.2 | 0.00 | 0.00 | 0.00 | 93 | 1015.1 |
| 20260505094313 | 8 | 89 | 1.6 | 3.2 | 0.00 | 0.00 | 0.00 | 93 | 1014.9 |
| 20260505093813 | 8 | 91 | 1.6 | 3.2 | 0.00 | 0.00 | 0.00 | 93 | 1015.1 |
| 20260505093312 | 8 | 89 | 1.6 | 3.2 | 0.00 | 0.00 | 0.00 | 93 | 1015.1 |
| 20260505092808 | 8 | 88 | 1.6 | 3.2 | 0.00 | 0.00 | 0.00 | 93 | 1015.2 |
| 20260505092307 | 8 | 86 | 3.2 | 3.2 | 0.00 | 0.00 | 0.00 | 93 | 1015.0 |
| 20260505091804 | 8 | 89 | 1.6 | 3.2 | 0.00 | 0.00 | 0.00 | 92 | 1015.1 |
| 20260505091302 | 8 | 89 | 3.2 | 3.2 | 0.00 | 0.00 | 0.00 | 92 | 1015.1 |
| 20260505090759 | 8 | 96 | 1.6 | 3.2 | 0.00 | 0.00 | 0.00 | 92 | 1015.4 |
| 20260505090258 | 8 | 94 | 1.6 | 3.2 | 0.00 | 0.00 | 0.00 | 92 | 1015.3 |
| 20260505085754 | 8 | 86 | 3.2 | 3.2 | 0.00 | 0.00 | 0.00 | 92 | 1015.4 |
| 20260505085253 | 9 | 89 | 1.6 | 1.6 | 0.00 | 0.00 | 0.00 | 91 | 1015.4 |
| 20260505084749 | 8 | 111 | 3.2 | 4.8 | 0.00 | 0.00 | 0.00 | 92 | 1015.2 |
| 20260505084244 | 9 | 92 | 1.6 | 3.2 | 0.00 | 0.00 | 0.00 | 91 | 1015.2 |
| 20260505083740 | 9 | 98 | 3.2 | 3.2 | 0.00 | 0.00 | 0.00 | 91 | 1015.3 |
| 20260505083237 | 9 | 99 | 1.6 | 1.6 | 0.00 | 0.00 | 0.00 | 91 | 1015.3 |
| 20260505082733 | 9 | 110 | 3.2 | 3.2 | 0.00 | 0.00 | 0.00 | 90 | 1015.5 |
| 20260505082230 | 9 | 111 | 1.6 | 3.2 | 0.00 | 0.00 | 0.00 | 90 | 1015.4 |
| 20260505081725 | 9 | 83 | 1.6 | 1.6 | 0.00 | 0.00 | 0.00 | 90 | 1015.6 |
| 20260505081223 | 9 | 111 | 3.2 | 3.2 | 0.00 | 0.00 | 0.00 | 90 | 1015.4 |
| 20260505080720 | 9 | 113 | 1.6 | 3.2 | 0.00 | 0.00 | 0.00 | 90 | 1015.2 |
| 20260505080215 | 10 | 94 | 1.6 | 3.2 | 0.00 | 0.00 | 0.00 | 90 | 1015.3 |
| 20260505075711 | 10 | 108 | 1.6 | 3.2 | 0.00 | 0.00 | 0.00 | 90 | 1015.5 |
| 20260505075209 | 10 | 103 | 3.2 | 3.2 | 0.00 | 0.00 | 0.00 | 90 | 1015.5 |
| 20260505074706 | 10 | 88 | 1.6 | 3.2 | 0.00 | 0.00 | 0.00 | 89 | 1015.4 |
| 20260505074203 | 10 | 72 | 1.6 | 3.2 | 0.00 | 0.00 | 0.00 | 89 | 1015.4 |
| 20260505073700 | 10 | 121 | 1.6 | 3.2 | 0.00 | 0.00 | 0.00 | 89 | 1015.4 |
| 20260505073158 | 10 | 87 | 1.6 | 3.2 | 0.00 | 0.00 | 0.00 | 89 | 1015.2 |
| 20260505072653 | 10 | 101 | 3.2 | 3.2 | 0.00 | 0.00 | 0.00 | 88 | 1015.4 |
| 20260505072150 | 10 | 89 | 0.0 | 3.2 | 0.00 | 0.00 | 0.00 | 88 | 1015.4 |
| 20260505071646 | 10 | 96 | 3.2 | 3.2 | 0.00 | 0.00 | 0.00 | 88 | 1015.3 |
| 20260505071144 | 10 | 110 | 1.6 | 3.2 | 0.00 | 0.00 | 0.00 | 87 | 1015.3 |
| 20260505070641 | 10 | 99 | 3.2 | 3.2 | 0.00 | 0.00 | 0.00 | 87 | 1015.3 |
| 20260505070137 | 10 | 97 | 1.6 | 3.2 | 0.00 | 0.00 | 0.00 | 87 | 1015.2 |
| 20260505065633 | 10 | 103 | 1.6 | 3.2 | 0.00 | 0.00 | 0.00 | 86 | 1015.3 |
| 20260505065130 | 10 | 94 | 1.6 | 3.2 | 0.00 | 0.00 | 0.00 | 86 | 1015.3 |
| 20260505064627 | 10 | 89 | 1.6 | 3.2 | 0.00 | 0.00 | 0.00 | 86 | 1015.3 |
| 20260505064125 | 10 | 88 | 3.2 | 3.2 | 0.00 | 0.00 | 0.00 | 86 | 1015.1 |
| 20260505063622 | 10 | 89 | 0.0 | 3.2 | 0.00 | 0.00 | 0.00 | 85 | 1015.3 |
| 20260505063118 | 10 | 99 | 1.6 | 3.2 | 0.00 | 0.00 | 0.00 | 85 | 1015.4 |
| 20260505062615 | 10 | 89 | 1.6 | 3.2 | 0.00 | 0.00 | 0.00 | 85 | 1015.5 |
| 20260505062112 | 10 | 96 | 1.6 | 3.2 | 0.00 | 0.00 | 0.00 | 85 | 1015.5 |
| 20260505061609 | 11 | 111 | 1.6 | 3.2 | 0.00 | 0.00 | 0.00 | 84 | 1015.6 |
| 20260505061107 | 11 | 124 | 3.2 | 3.2 | 0.00 | 0.00 | 0.00 | 84 | 1015.4 |
| 20260505060604 | 11 | 93 | 1.6 | 3.2 | 0.00 | 0.00 | 0.00 | 83 | 1015.4 |
| 20260505055556 | 11 | 96 | 3.2 | 3.2 | 0.00 | 0.00 | 0.00 | 82 | 1015.5 |
| 20260505055053 | 11 | 104 | 1.6 | 3.2 | 0.00 | 0.00 | 0.00 | 82 | 1015.5 |
| 20260505054550 | 11 | 96 | 1.6 | 3.2 | 0.00 | 0.00 | 0.00 | 81 | 1015.7 |
| 20260505054049 | 11 | 49 | 0.0 | 1.6 | 0.00 | 0.00 | 0.00 | 81 | 1015.7 |
| 20260505053545 | 11 | 108 | 1.6 | 3.2 | 0.00 | 0.00 | 0.00 | 80 | 1015.6 |
| 20260505053042 | 11 | 111 | 0.0 | 3.2 | 0.00 | 0.00 | 0.00 | 80 | 1015.7 |
| 20260505052539 | 11 | 95 | 1.6 | 3.2 | 0.00 | 0.00 | 0.00 | 80 | 1015.6 |
| 20260505052037 | 12 | 100 | 1.6 | 3.2 | 0.00 | 0.00 | 0.00 | 79 | 1015.6 |
| 20260505051533 | 12 | 102 | 3.2 | 3.2 | 0.00 | 0.00 | 0.00 | 78 | 1015.6 |
| 20260505051031 | 12 | 71 | 1.6 | 3.2 | 0.00 | 0.00 | 0.00 | 78 | 1015.6 |
| 20260505050529 | 12 | 55 | 0.0 | 3.2 | 0.00 | 0.00 | 0.00 | 78 | 1015.4 |
| 20260505041457 | 12 | 96 | 1.6 | 1.6 | 0.00 | 0.00 | 0.00 | 75 | 1015.5 |
| 20260505040954 | 12 | 87 | 1.6 | 1.6 | 0.00 | 0.00 | 0.00 | 75 | 1015.5 |
| 20260505040451 | 13 | 103 | 1.6 | 3.2 | 0.00 | 0.00 | 0.00 | 74 | 1015.5 |
| 20260505035948 | 13 | 103 | 1.6 | 3.2 | 0.00 | 0.00 | 0.00 | 73 | 1015.6 |
| 20260505035444 | 13 | 77 | 3.2 | 3.2 | 0.00 | 0.00 | 0.00 | 72 | 1015.5 |
| 20260505034942 | 13 | 72 | 1.6 | 3.2 | 0.00 | 0.00 | 0.00 | 72 | 1015.6 |
| 20260505034438 | 13 | 66 | 0.0 | 1.6 | 0.00 | 0.00 | 0.00 | 71 | 1015.4 |
| 20260505033935 | 13 | 54 | 1.6 | 3.2 | 0.00 | 0.00 | 0.00 | 71 | 1015.6 |
| 20260505033432 | 13 | 52 | 1.6 | 1.6 | 0.00 | 0.00 | 0.00 | 70 | 1015.6 |
| 20260505032930 | 13 | 57 | 0.0 | 3.2 | 0.00 | 0.00 | 0.00 | 70 | 1015.7 |
| 20260505032427 | 13 | 51 | 1.6 | 1.6 | 0.00 | 0.00 | 0.00 | 69 | 1015.6 |
| 20260505031923 | 13 | 66 | 3.2 | 3.2 | 0.00 | 0.00 | 0.00 | 69 | 1015.7 |
| 20260505031420 | 13 | 38 | 0.0 | 3.2 | 0.00 | 0.00 | 0.00 | 70 | 1015.5 |
| 20260505030917 | 14 | 21 | 0.0 | 1.6 | 0.00 | 0.00 | 0.00 | 69 | 1015.5 |
| 20260505030413 | 14 | 84 | 1.6 | 3.2 | 0.00 | 0.00 | 0.00 | 68 | 1015.5 |
| 20260505025909 | 14 | 109 | 3.2 | 3.2 | 0.00 | 0.00 | 0.00 | 69 | 1015.7 |
| 20260505025406 | 15 | 111 | 1.6 | 3.2 | 0.00 | 0.00 | 0.00 | 66 | 1015.6 |
| 20260505024905 | 15 | 41 | 0.0 | 3.2 | 0.00 | 0.00 | 0.00 | 64 | 1015.6 |
| 20260505024402 | 15 | 39 | 3.2 | 3.2 | 0.00 | 0.00 | 0.00 | 64 | 1015.6 |
| 20260505023859 | 15 | 41 | 1.6 | 3.2 | 0.00 | 0.00 | 0.00 | 63 | 1015.5 |
| 20260505023356 | 15 | 55 | 1.6 | 3.2 | 0.00 | 0.00 | 0.00 | 63 | 1015.5 |
| 20260505022853 | 15 | 33 | 0.0 | 3.2 | 0.00 | 0.00 | 0.00 | 63 | 1015.5 |
| 20260505022350 | 15 | 50 | 0.0 | 1.6 | 0.00 | 0.00 | 0.00 | 62 | 1015.5 |
| 20260505021848 | 15 | 44 | 1.6 | 3.2 | 0.00 | 0.00 | 0.00 | 62 | 1015.5 |
| 20260505021344 | 15 | 50 | 0.0 | 1.6 | 0.00 | 0.00 | 0.00 | 61 | 1015.4 |
| 20260505020840 | 16 | 43 | 1.6 | 1.6 | 0.00 | 0.00 | 0.00 | 61 | 1015.3 |
| 20260505020335 | 16 | 49 | 0.0 | 1.6 | 0.00 | 0.00 | 0.00 | 61 | 1015.3 |
| 20260505015832 | 16 | 31 | 0.0 | 1.6 | 0.00 | 0.00 | 0.00 | 61 | 1015.3 |
| 20260505015330 | 16 | 47 | 0.0 | 3.2 | 0.00 | 0.00 | 0.00 | 60 | 1015.2 |
| 20260505014827 | 16 | 30 | 0.0 | 3.2 | 0.00 | 0.00 | 0.00 | 60 | 1015.2 |
| 20260505014324 | 16 | 0 | 1.6 | 3.2 | 0.00 | 0.00 | 0.00 | 58 | 1015.2 |